Location: Millers Ferry
(32.0990°N, 87.3680°W)
Time: 02:26:06
(UTC-05:00)

CSL-04 Rocket - Visible Passes

Search period start: 06 May 2015 00:00
Search period end: 16 May 2015 00:00
Orbit: 806 x 861 km, 98.9° (Epoch: 05 May)

Date Brightness Start Highest point End Pass type
(mag) Time Alt. Az. Time Alt. Az. Time Alt. Az.
06 May 5.6 04:41:21 10° NE 04:45:46 28° E 04:50:18 10° SSE visible
07 May 6.1 04:25:15 10° NE 04:28:47 19° E 04:32:32 10° SE visible
08 May 6.4 04:09:53 10° ENE 04:11:44 12° E 04:13:58 10° ESE visible
09 May 3.7 05:30:28 10° NNE 05:35:46 90° ENE 05:41:05 10° SSW visible
10 May 4.2 05:13:43 10° NNE 05:18:56 61° E 05:24:11 10° S visible
11 May 4.9 04:57:07 10° NNE 05:02:03 40° E 05:07:03 10° S visible
12 May 5.6 04:40:44 10° NE 04:45:07 27° E 04:49:38 10° SSE visible
13 May 6.2 04:24:40 10° NE 04:28:08 18° E 04:31:51 10° SE visible
14 May 6.4 04:09:21 10° ENE 04:11:05 12° E 04:13:12 10° ESE visible
